This demonstration page uses our WeatherBlox Daily Observations layout. Learn more.

Left ArrowRight Arrow

31.31129, -92.44514

Hourly Observations for August 28, 2022

Temp ( °F °C ) Dew Point ( °F °C ) Humidity (%) Winds ( mph kmh ) Pressure ( in mb ) Visibility ( mi km ) Precip ( " mm )
12:53 am 00:53 Clear 77 25 74 23.3 90 90 Calm 29.88 1012 10 16 0.00 0.00
1:53 am 01:53 Clear 77 25 74 23.3 90 90 SSE 3 6 29.87 1012 10 16 0.00 0.00
2:53 am 02:53 Clear 76 24.4 73 22.8 91 91 Calm 29.88 1012 10 16 0.00 0.00
3:53 am 03:53 Clear 76 24.4 73 22.8 91 91 ESE 6 9 29.88 1012 10 16 0.00 0.00
4:36 am 04:36 Partly Cloudy 77 25 74 23.3 90 90 ESE 7 11 29.88 1012 10 16 0.00 0.00
4:53 am 04:53 Mostly Cloudy 76 24.4 74 23.3 94 94 SE 7 11 29.89 1012 10 16 0.00 0.00
5:11 am 05:11 Cloudy 77 25 74 23.3 90 90 SSE 7 11 29.88 1012 8 13 0.00 0.00
5:25 am 05:25 Cloudy with Mist and Fog 76 24.4 74 23.3 94 94 SSE 7 11 29.89 1012 2 2 0.00 0.00
5:36 am 05:36 Mostly Clear with Mist and Fog 76 24.4 74 23.3 94 94 SSE 7 11 29.89 1012 1 1 0.00 0.00
5:53 am 05:53 Mostly Clear with Mist and Fog 76 24.4 74 23.3 94 94 SSE 5 7 29.90 1013 1 1 0.00 0.00
6:53 am 06:53 Partly Cloudy with Fog 77 25 75 23.9 94 94 SSE 6 9 29.91 1013 1 1 0.00 0.00
7:01 am 07:01 Partly Cloudy with Fog 77 25 75 23.9 94 94 SSE 5 7 29.91 1013 0 0 0.00 0.00
7:53 am 07:53 Partly Cloudy with Fog 77 25 75 23.9 94 94 SE 6 9 29.93 1014 1 1 0.00 0.00
8:09 am 08:09 Partly Cloudy with Fog 77 25 75 23.9 94 94 SE 7 11 29.92 1013 0 0 0.00 0.00
8:22 am 08:22 Partly Cloudy with Fog 78 25.6 76 24.4 93 93 SSE 7 11 29.92 1013 1 1 0.00 0.00
8:40 am 08:40 Cloudy with Mist and Fog 78 25.6 76 24.4 93 93 SE 6 9 29.93 1013 2 2 0.00 0.00
8:47 am 08:47 Cloudy with Mist and Fog 79 26 75 24 89 89 SE 7 11 29.93 1013 3 5 0.00 0.00
8:53 am 08:53 Cloudy with Mist and Fog 79 26.1 76 24.4 90 90 SE 5 7 29.94 1014 5 8 0.00 0.00
9:31 am 09:31 Mostly Cloudy 82 27.8 76 24.4 82 82 SSE 5 7 29.93 1013 10 16 0.00 0.00
9:53 am 09:53 Mostly Cloudy 82 27.8 77 25 85 85 SE 6 9 29.94 1014 10 16 0.00 0.00
10:00 am 10:00 Mostly Sunny 83 28.3 77 25 82 82 Calm 29.92 1013 10 16 0.00 0.00
10:36 am 10:36 Mostly Cloudy 86 30 76 24.4 72 72 VRB 5 7 29.92 1013 10 16 0.00 0.00
10:53 am 10:53 Mostly Cloudy 85 29.4 76 24.4 75 75 ESE 6 9 29.94 1014 10 16 0.00 0.00
11:02 am 11:02 Mostly Cloudy 86 30 76 24.4 72 72 S 5 7 29.92 1013 10 16 0.00 0.00
11:53 am 11:53 Mostly Sunny 90 32.2 76 24.4 64 64 SSE 7 11 29.92 1013 10 16 0.00 0.00
12:53 pm 12:53 Partly Cloudy 91 32.8 74 23.3 58 58 SE 9 15 29.91 1013 10 16 0.00 0.00
1:53 pm 13:53 Mostly Cloudy 90 32.2 74 23.3 59 59 SSE 9 15 29.89 1012 10 16 0.00 0.00
2:53 pm 14:53 Partly Cloudy 91 32.8 74 23.3 58 58 VRB 6 9 29.88 1012 10 16 0.00 0.00
3:53 pm 15:53 Partly Cloudy 93 33.9 74 23.3 54 54 SSE 12 19 29.87 1011 10 16 0.00 0.00
4:53 pm 16:53 Mostly Cloudy with Light Rain 86 30 75 23.9 70 70 SSE 12 19 29.86 1011 9 14 0.01 0.13
5:53 pm 17:53 Mostly Cloudy 89 31.7 75 23.9 63 63 SSE 17 28 29.85 1011 10 16 0.01 0.13
6:53 pm 18:53 Cloudy 86 30 76 24.4 72 72 S 6 9 29.87 1012 10 16 0.00 0.00
7:53 pm 19:53 Clear 84 28.9 74 23.3 72 72 S 9 15 29.88 1012 10 16 0.00 0.00
8:53 pm 20:53 Clear 80 26.7 73 22.8 79 79 SSE 6 9 29.90 1013 10 16 0.00 0.00
9:53 pm 21:53 Mostly Clear 80 26.7 73 22.8 79 79 SE 9 15 29.91 1013 10 16 0.00 0.00
10:53 pm 22:53 Clear 79 26.1 73 22.8 82 82 ESE 6 9 29.91 1013 10 16 0.00 0.00
11:53 pm 23:53 Clear 78 25.6 74 23.3 87 87 Calm 29.89 1012 10 16 0.00 0.00

Powered by AerisWeather